Wind_Speed
8 9 6 3 2 2 2 3 3 3 7 7 7 7 7 6 6 6 6 7 7 9 10 10 10 11 12
13 8 6 3 1 2 2 3 3 4 6 6 7 7 6 7 7 7 7 8 9 10 10 10 11 12 13
9 7 6 3 2 2 2 2 3 4 4 5 5 7 7 8 9 9 8 8 8 8 8 10 11 12 12
11 8 5 4 3 3 3 5 6 5 2 3 6 7 8 11 12 10 9 9 9 9 10 11 11 12 13
9 7 5 4 2 3 4 7 6 4 3 6 11 13 13 13 11 8 11 9 9 10 12 12 13 12 13
7 6 5 3 1 3 5 6 4 3 15 18 16 15 12 11 10 10 11 10 11 12 12 12 12 12 13
4 3 1 1 3 4 4 5 8 13 16 17 16 15 13 11 10 12 12 11 11 12 13 14 13 13 14
2 1 2 2 4 6 7 9 12 14 12 8 15 14 16 15 14 13 13 13 14 14 12 13 15 16 16
1 1 2 2 3 7 9 11 13 15 14 10 9 20 20 13 8 6 10 11 15 16 16 18 20 21 20
2 3 5 7 8 9 9 10 12 7 1 10 16 16 7 9 1 21 23 21 19 20 21 22 22 23 24
5 7 8 9 9 7 7 9 10 12 14 12 11 15 12 17 20 22 23 21 21 23 22 21 21 21 25
8 9 8 6 4 5 6 8 10 13 15 14 14 17 19 21 20 18 22 24 21 24 24 23 22 23 24
9 9 8 9 10 11 12 12 13 14 15 15 16 18 20 23 23 22 21 21 21 17 22 27 28 29 30
8 9 10 11 14 15 17 18 20 22 21 20 20 20 21 22 23 23 21 19 24 26 27 27 27 28 27
12 13 14 16 17 17 17 19 18 19 22 22 20 19 20 21 23 24 24 24 24 25 26 27 25 25 28
15 16 17 17 17 17 15 16 19 20 20 21 22 24 24 20 16 21 22 24 25 22 21 22 26 28 30
17 18 18 18 16 18 19 19 20 19 21 21 18 18 15 8 20 13 17 22 24 28 24 23 25 29 25
Wind_Direction
147 158 160 158 117 63 34 25 29 37 15 9 6 11 20 22 13 4 358 353 345 340 344 346 346 345 345
148 152 157 147 101 82 69 28 31 37 19 16 16 13 5 3 353 346 341 336 337 338 339 340 341 340 340
136 146 141 124 95 88 67 40 17 343 344 355 7 10 8 2 352 340 333 336 338 339 337 336 335 334 333
128 127 126 111 79 73 31 5 356 348 10 4 2 350 336 331 329 327 325 327 330 332 331 331 330 327 325
120 122 117 115 69 20 358 348 355 43 10 337 330 328 327 325 323 324 329 312 322 327 328 326 324 323 324
126 131 127 123 64 1 359 0 347 327 330 320 327 328 335 330 334 321 323 312 305 314 317 323 325 325 323
134 142 173 254 313 332 337 328 314 318 325 317 328 326 334 325 313 318 316 315 313 311 313 315 315 317 318
81 42 2 336 333 327 316 313 316 321 331 297 324 335 332 318 308 311 314 311 310 310 308 312 313 311 313
148 32 339 292 321 309 302 310 315 317 319 306 333 327 328 326 324 6 348 328 314 307 303 301 304 303 300
237 250 276 287 290 293 292 297 304 318 279 310 313 326 318 310 198 316 317 314 307 301 300 299 298 296 295
285 296 301 298 293 287 296 303 302 290 301 310 304 313 300 296 301 306 311 312 310 309 309 306 297 293 294
287 301 308 308 302 300 292 289 292 295 300 299 294 302 305 302 299 305 306 309 307 304 302 304 298 296 294
284 290 290 298 303 304 297 294 290 287 288 290 295 299 298 299 297 300 305 305 305 302 304 302 303 302 299
267 276 284 291 298 303 305 305 303 296 291 291 293 296 297 294 296 294 293 286 296 301 303 303 302 299 297
274 279 286 295 299 300 300 303 302 304 304 303 304 301 297 296 292 291 295 296 299 303 307 299 296 291 296
272 281 289 294 296 300 298 295 298 300 303 306 312 314 314 307 283 286 292 295 300 298 302 301 300 295 291
277 283 287 288 290 292 295 297 296 296 297 303 306 307 301 292 298 298 302 304 299 299 299 298 297 301 305
Height
927 929 931 932 932 932 934 934 933 933 934 933 933 932 931 931 930 930 929 928 928 927 925 924 923 922 920
926 928 931 932 932 933 933 934 934 934 934 933 933 932 932 931 930 929 928 927 926 925 925 923 922 920 919
925 929 931 932 933 933 933 934 934 934 933 932 933 932 932 931 930 929 928 926 925 924 923 922 921 919 918
926 929 931 933 933 933 934 934 933 933 932 932 931 931 930 929 927 926 926 925 924 923 921 920 919 918 917
927 930 931 933 934 934 934 934 933 932 932 931 930 929 928 926 925 924 925 923 922 921 920 919 917 915 914
928 930 931 932 933 934 934 934 933 933 931 929 928 927 925 924 923 922 921 922 921 919 918 916 915 913 912
928 930 931 932 933 933 933 933 932 931 930 926 925 924 923 922 921 920 919 919 918 917 916 914 912 911 910
928 930 930 931 931 931 931 931 929 929 928 925 923 920 920 919 918 917 916 916 915 914 913 911 910 909 907
928 929 929 930 930 929 929 928 927 926 925 923 922 919 917 915 913 914 914 913 912 911 910 908 906 904 902
927 927 928 927 927 927 926 925 925 924 923 923 921 919 915 912 911 911 911 910 908 907 905 903 902 899 897
925 925 925 925 925 924 924 923 922 922 922 920 918 917 917 912 908 907 907 905 903 901 899 897 895 894 891
923 922 922 922 921 921 920 920 920 919 918 918 915 914 911 908 905 902 901 900 898 895 893 891 889 888 886
920 919 919 919 918 917 917 916 915 915 914 913 911 910 908 904 900 898 897 894 892 890 889 886 883 881 878
916 916 916 915 914 913 912 911 910 908 908 908 906 904 901 899 897 893 893 891 888 885 883 880 877 875 872
913 912 911 911 910 909 908 907 906 903 901 900 899 898 895 893 890 888 886 884 882 880 878 874 872 869 866
908 907 906 905 905 904 904 903 901 899 897 896 894 890 887 885 886 883 882 879 877 875 873 870 866 863 860
903 902 901 901 900 900 899 898 896 895 893 892 890 889 886 882 880 881 877 875 873 869 867 865 861 856 854